Latest Weather Observations for Rocky Gully South

IDW60801

Issued at 12:35 pm WST Thursday 24 April 2014 (issued every 30 minutes, with the page automatically refreshed every 10 minutes)

About weather observations | Map of weather stations | Latest weather observations for WA | Other Formats
Station Details ID: 009964 Name: ROCKY GULLY Lat: -34.57 Lon: 117.01 Height: 250.0 m
Data from the previous 72 hours. | See also: Recent months at Rocky Gully South
Date/Time
WST
Temp
°C
App
Temp
°C
Dew
Point
Rel
Hum
%
Delta-T
°C
Wind Press
QNH
hPa
Press
MSL
hPa
Rain
since 9 am
mm
Dir
 
Spd
km/h
Gust
km/h
Spd
kts
Gust
kts
24/12:30pm 20.6 18.9 8.3 45 6.5 ESE 7 13 4 7 - - 0.0
24/12:00pm 20.0 18.0 8.7 48 6.0 ENE 9 15 5 8 - - 0.0
24/11:30am 19.4 17.6 9.3 52 5.4 E 9 17 5 9 - - 0.0
24/11:00am 18.1 16.2 10.5 61 4.1 ENE 11 17 6 9 - - 0.0
24/10:30am 17.1 16.2 11.2 68 3.2 ENE 7 13 4 7 - - 0.0
24/10:00am 15.3 13.5 10.7 74 2.5 NE 11 20 6 11 - - 0.0
24/09:30am 14.4 13.1 11.2 81 1.7 NE 9 17 5 9 - - 0.0
24/09:00am 13.5 11.9 11.6 88 1.0 ENE 11 19 6 10 - - 0.0
24/08:30am 12.7 11.4 11.4 92 0.7 NE 9 20 5 11 - - 0.0
24/08:00am 11.7 10.6 10.6 93 0.6 ENE 7 17 4 9 - - 0.0
24/07:30am 11.4 10.2 10.3 93 0.6 ENE 7 13 4 7 - - 0.0
24/07:00am 11.1 9.8 10.0 93 0.6 NE 7 13 4 7 - - 0.0
24/06:30am 10.6 9.2 9.5 93 0.6 NE 7 13 4 7 - - 0.0
24/06:00am 10.1 8.6 9.0 93 0.6 NE 7 11 4 6 - - 0.0
24/05:30am 10.4 8.9 9.3 93 0.6 NNE 7 11 4 6 - - 0.0
24/05:00am 10.4 8.9 9.3 93 0.6 NNE 7 13 4 7 - - 0.0
24/04:30am 10.1 8.6 9.0 93 0.6 NNE 7 11 4 6 - - 0.0
24/04:00am 9.6 7.9 8.4 92 0.6 NE 7 11 4 6 - - 0.0
24/03:30am 9.7 8.2 8.5 92 0.6 NE 6 9 3 5 - - 0.0
24/03:00am 9.9 8.3 8.7 92 0.6 NE 7 9 4 5 - - 0.0
24/02:30am 10.1 8.7 8.9 92 0.6 NE 6 9 3 5 - - 0.0
24/02:00am 10.2 8.8 9.0 92 0.6 ENE 6 7 3 4 - - 0.0
24/01:30am 10.5 9.2 9.1 91 0.7 ENE 6 7 3 4 - - 0.0
24/01:00am 10.9 9.6 9.3 90 0.8 E 6 9 3 5 - - 0.0
24/12:30am 11.2 10.0 9.6 90 0.8 E 6 9 3 5 - - 0.0
24/12:00am 11.7 10.6 9.9 89 0.9 E 6 9 3 5 - - 0.0
 
Date/Time
WST
Temp
°C
App
Temp
°C
Dew
Point
Rel
Hum
%
Delta-T
°C
Wind Press
QNH
hPa
Press
MSL
hPa
Rain
since 9 am
mm
Dir
 
Spd
km/h
Gust
km/h
Spd
kts
Gust
kts
23/11:30pm 12.4 11.3 10.6 89 0.9 ESE 7 11 4 6 - - 0.0
23/11:00pm 11.8 10.7 10.0 89 0.9 E 6 9 3 5 - - 0.0
23/10:30pm 12.1 11.1 10.3 89 0.9 E 6 11 3 6 - - 0.0
23/10:00pm 11.6 10.4 9.7 88 1.0 ESE 6 9 3 5 - - 0.0
23/09:30pm 11.6 10.2 9.7 88 1.0 SE 7 11 4 6 - - 0.0
23/09:00pm 11.9 10.6 9.8 87 1.1 SE 7 11 4 6 - - 0.0
23/08:30pm 12.1 10.8 9.8 86 1.2 SE 7 13 4 7 - - 0.0
23/08:00pm 12.4 11.0 9.6 83 1.4 ESE 7 11 4 6 - - 0.0
23/07:30pm 13.0 11.3 9.8 81 1.7 SE 9 13 5 7 - - 0.0
23/07:00pm 13.6 11.8 9.6 77 2.1 SSE 9 15 5 8 - - 0.0
23/06:30pm 14.3 12.5 9.3 72 2.6 SSE 9 13 5 7 - - 0.0
23/06:00pm 14.9 12.7 9.5 70 2.8 SSE 11 15 6 8 - - 0.0
23/05:30pm 15.7 14.2 9.1 65 3.4 SSE 7 13 4 7 - - 0.0
23/05:00pm 17.2 15.0 9.4 60 4.1 SSE 11 19 6 10 - - 0.0
23/04:30pm 19.3 17.1 8.0 48 5.9 SSE 9 13 5 7 - - 0.0
23/04:00pm 19.9 18.7 7.9 46 6.3 SSW 4 9 2 5 - - 0.0
23/03:30pm 19.0 17.2 7.8 48 5.8 S 7 15 4 8 - - 0.0
23/03:00pm 20.1 18.5 8.8 48 6.0 WSW 7 15 4 8 - - 0.0
23/02:30pm 18.4 16.5 8.9 54 5.0 SSE 9 13 5 7 - - 0.0
23/02:00pm 18.5 17.0 8.5 52 5.2 E 6 9 3 5 - - 0.0
23/01:30pm 18.6 18.1 10.7 60 4.3 NW 4 7 2 4 - - 0.0
23/01:00pm 16.9 15.8 9.8 63 3.8 S 6 9 3 5 - - 0.0
23/12:30pm 16.9 15.2 11.2 69 3.1 SSW 11 17 6 9 - - 0.0
23/12:00pm 17.7 16.7 11.0 65 3.7 S 7 15 4 8 - - 0.0
23/11:30am 17.5 16.3 11.5 68 3.3 S 9 15 5 8 - - 0.0
23/11:00am 15.9 15.4 12.6 81 1.8 SSW 7 11 4 6 - - 0.0
23/10:30am 16.0 16.1 14.4 90 0.9 S 7 11 4 6 - - 0.0
23/10:00am 14.5 14.8 13.4 93 0.6 W 4 7 2 4 - - 0.0
23/09:30am 13.5 13.6 12.6 94 0.5 W 4 9 2 5 - - 0.0
23/09:00am 11.9 11.1 11.0 94 0.5 W 6 7 3 4 - - 0.8
23/08:30am 11.0 9.9 10.1 94 0.5 N 6 7 3 4 - - 0.0
23/08:00am 9.3 7.8 8.4 94 0.4 N 6 7 3 4 - - 0.0
23/07:30am 8.7 6.9 7.8 94 0.4 N 7 9 4 5 - - 0.0
23/07:00am 7.3 5.1 6.4 94 0.4 N 7 11 4 6 - - 0.0
23/06:30am 6.6 4.3 5.6 93 0.5 N 7 9 4 5 - - 0.0
23/06:00am 6.8 4.7 5.7 93 0.5 N 6 7 3 4 - - 0.0
23/05:30am 6.9 4.8 5.8 93 0.5 N 6 7 3 4 - - 0.0
23/05:00am 6.1 3.8 4.9 92 0.5 N 6 7 3 4 - - 0.0
23/04:30am 6.2 5.1 5.0 92 0.5 CALM 0 0 0 0 - - 0.0
23/04:00am 6.8 4.5 5.6 92 0.5 NNW 7 7 4 4 - - 0.0
23/03:30am 6.9 4.2 5.7 92 0.5 N 9 11 5 6 - - 0.0
23/03:00am 6.9 4.6 5.7 92 0.5 N 7 11 4 6 - - 0.0
23/02:30am 6.3 3.8 4.9 91 0.6 N 7 9 4 5 - - 0.0
23/02:00am 6.9 4.6 5.5 91 0.6 N 7 9 4 5 - - 0.0
23/01:30am 6.8 4.4 5.3 90 0.7 N 7 11 4 6 - - 0.0
23/01:00am 7.4 5.7 5.9 90 0.7 N 4 6 2 3 - - 0.0
23/12:30am 7.5 5.4 5.8 89 0.8 N 6 7 3 4 - - 0.0
23/12:00am 7.4 5.2 5.5 88 0.9 NNW 6 7 3 4 - - 0.0
 
Date/Time
WST
Temp
°C
App
Temp
°C
Dew
Point
Rel
Hum
%
Delta-T
°C
Wind Press
QNH
hPa
Press
MSL
hPa
Rain
since 9 am
mm
Dir
 
Spd
km/h
Gust
km/h
Spd
kts
Gust
kts
22/11:30pm 7.1 4.7 5.1 87 0.9 NNW 7 7 4 4 - - 0.0
22/11:00pm 8.4 7.5 6.2 86 1.0 CALM 0 0 0 0 - - 0.0
22/10:30pm 9.1 8.3 6.5 84 1.2 CALM 0 0 0 0 - - 0.0
22/10:00pm 9.1 8.3 6.4 83 1.3 CALM 0 0 0 0 - - 0.0
22/09:30pm 9.4 7.4 6.3 81 1.5 NW 6 7 3 4 - - 0.0
22/09:00pm 9.8 8.1 6.0 77 1.8 W 4 7 2 4 - - 0.0
22/08:30pm 10.0 9.1 6.0 76 1.9 CALM 0 0 0 0 - - 0.0
22/08:00pm 11.1 9.4 5.8 70 2.5 W 4 7 2 4 - - 0.0
22/07:30pm 12.0 10.0 6.3 68 2.7 W 6 9 3 5 - - 0.0
22/07:00pm 12.9 10.4 6.7 66 3.0 WSW 9 13 5 7 - - 0.0
22/06:30pm 13.3 11.3 6.4 63 3.3 WSW 6 7 3 4 - - 0.0
22/06:00pm 14.4 12.3 6.5 59 3.9 SW 7 11 4 6 - - 0.0
22/05:30pm 15.4 13.0 6.9 57 4.2 SSW 9 15 5 8 - - 0.0
22/05:00pm 17.0 14.6 7.1 52 5.0 SW 9 13 5 7 - - 0.0
22/04:30pm 17.8 14.6 7.0 49 5.5 SW 13 19 7 10 - - 0.0
22/04:00pm 18.9 16.3 6.1 43 6.4 W 9 17 5 9 - - 0.0
22/03:30pm 19.3 16.4 6.4 43 6.5 SW 11 15 6 8 - - 0.0
22/03:00pm 18.7 16.0 5.5 42 6.5 W 9 15 5 8 - - 0.0
22/02:30pm 19.3 16.7 6.1 42 6.6 WSW 9 17 5 9 - - 0.0
22/02:00pm 18.6 15.6 6.1 44 6.2 W 11 22 6 12 - - 0.0
22/01:30pm 17.8 14.8 6.0 46 5.9 SW 11 17 6 9 - - 0.0
22/01:00pm 17.2 14.3 6.4 49 5.4 WSW 11 20 6 11 - - 0.0
22/12:30pm 17.9 15.9 7.0 49 5.5 WNW 7 13 4 7 - - 0.0
22/12:00pm 17.5 14.6 6.7 49 5.4 NW 11 19 6 10 - - 0.0
22/11:30am 16.6 12.6 6.7 52 4.9 NNW 17 24 9 13 - - 0.0
22/11:00am 15.9 13.2 7.4 57 4.3 NNW 11 17 6 9 - - 0.0
22/10:30am 15.5 12.6 8.0 61 3.8 NNW 13 24 7 13 - - 0.0
22/10:00am 14.7 11.8 8.0 64 3.4 N 13 20 7 11 - - 0.0
22/09:30am 14.0 11.5 8.4 69 2.8 NNW 11 19 6 10 - - 0.0
22/09:00am 12.0 9.1 8.3 78 1.8 N 13 20 7 11 - - 0.0
22/08:30am 11.0 8.5 8.0 82 1.5 N 11 17 6 9 - - 0.0
22/08:00am 10.2 8.0 8.0 86 1.1 N 9 17 5 9 - - 0.0
22/07:30am 9.2 7.3 7.5 89 0.8 N 7 11 4 6 - - 0.0
22/07:00am 8.3 6.2 6.8 90 0.7 N 7 11 4 6 - - 0.0
22/06:30am 7.3 5.0 5.8 90 0.7 N 7 9 4 5 - - 0.0
22/06:00am 6.9 4.5 5.4 90 0.7 N 7 9 4 5 - - 0.0
22/05:30am 6.6 4.2 5.1 90 0.7 N 7 11 4 6 - - 0.0
22/05:00am 6.7 3.9 5.3 91 0.6 N 9 11 5 6 - - 0.0
22/04:30am 6.4 4.0 5.2 92 0.5 N 7 11 4 6 - - 0.0
22/04:00am 6.1 3.6 4.9 92 0.5 N 7 9 4 5 - - 0.0
22/03:30am 6.5 4.1 5.3 92 0.5 N 7 11 4 6 - - 0.0
22/03:00am 6.4 4.0 5.2 92 0.5 N 7 9 4 5 - - 0.0
22/02:30am 6.6 4.4 5.4 92 0.5 N 6 7 3 4 - - 0.0
22/02:00am 6.7 4.3 5.3 91 0.6 N 7 9 4 5 - - 0.0
22/01:30am 7.2 5.0 6.0 92 0.5 N 7 9 4 5 - - 0.0
22/01:00am 7.0 4.7 5.8 92 0.5 N 7 7 4 4 - - 0.0
22/12:30am 6.8 4.4 5.4 91 0.6 N 7 9 4 5 - - 0.0
22/12:00am 6.6 4.2 5.2 91 0.6 N 7 7 4 4 - - 0.0
 
Date/Time
WST
Temp
°C
App
Temp
°C
Dew
Point
Rel
Hum
%
Delta-T
°C
Wind Press
QNH
hPa
Press
MSL
hPa
Rain
since 9 am
mm
Dir
 
Spd
km/h
Gust
km/h
Spd
kts
Gust
kts
21/11:30pm 6.0 3.1 4.5 90 0.7 N 9 11 5 6 - - 0.0
21/11:00pm 5.8 3.3 4.0 88 0.8 N 6 7 3 4 - - 0.0
21/10:30pm 7.4 6.0 5.5 88 0.9 ESE 2 7 1 4 - - 0.0
21/10:00pm 6.9 5.8 4.9 87 0.9 CALM 0 0 0 0 - - 0.0
21/09:30pm 8.0 7.0 5.6 85 1.1 CALM 0 0 0 0 - - 0.0
21/09:00pm 7.8 6.7 4.9 82 1.3 CALM 0 2 0 1 - - 0.0
21/08:30pm 9.2 8.4 6.3 82 1.4 CALM 0 0 0 0 - - 0.0
21/08:00pm 8.9 7.8 5.1 77 1.7 CALM 0 0 0 0 - - 0.0
21/07:30pm 10.8 8.7 6.0 72 2.3 S 6 7 3 4 - - 0.0
21/07:00pm 11.2 9.1 5.9 70 2.5 S 6 7 3 4 - - 0.0
21/06:30pm 12.0 10.0 6.1 67 2.8 S 6 7 3 4 - - 0.0
21/06:00pm 13.7 11.5 6.1 60 3.7 SSW 7 11 4 6 - - 0.0
21/05:30pm 15.3 12.3 6.1 54 4.5 S 11 17 6 9 - - 0.0
21/05:00pm 15.5 12.9 6.2 54 4.6 SW 9 15 5 8 - - 0.0
21/04:30pm 16.4 13.8 6.2 51 5.0 S 9 15 5 8 - - 0.0
21/04:00pm 16.6 13.6 6.1 50 5.2 SW 11 17 6 9 - - 0.0
21/03:30pm 17.1 14.9 6.3 49 5.4 SW 7 13 4 7 - - 0.0
21/03:00pm 17.2 14.7 6.4 49 5.4 SW 9 15 5 8 - - 0.0
21/02:30pm 16.9 13.9 6.1 49 5.3 SSW 11 17 6 9 - - 0.0
21/02:00pm 17.9 15.3 6.1 46 5.9 SW 9 17 5 9 - - 0.0
21/01:30pm 17.5 13.8 6.4 48 5.5 SW 15 22 8 12 - - 0.0
21/01:00pm 18.6 16.2 6.8 46 6.0 WSW 9 17 5 9 - - 0.0

Other Formats:

Comma delimited format used in spreadsheet applications
http://www.bom.gov.au/fwo/IDW60801/IDW60801.94631.axf

JavaScript Object Notation format (JSON) in row-major order
http://www.bom.gov.au/fwo/IDW60801/IDW60801.94631.json